Temperature
9 9 9 9 9 9 9 9 9 9 9 9 9 9 9 9 8 9 8 8 8 8 8 8 8 8 8 8 8 8 9 9 9 9 9 9 9 9 9 9 9 9 9
8 8 8 8 8 8 8 8 8 8 8 8 8 8 8 8 8 8 8 8 8 8 8 8 8 8 8 8 8 8 8 8 8 8 8 8 8 8 8 9 9 9 9
8 8 8 8 8 8 8 8 8 8 8 8 8 8 8 7 7 7 7 7 7 7 7 7 7 7 7 7 7 7 7 7 7 7 7 8 8 8 8 8 8 8 8
8 7 7 7 7 7 7 7 7 7 7 7 7 7 7 7 7 7 7 7 7 7 7 7 7 7 7 7 7 7 7 7 7 7 7 7 7 7 7 7 7 7 7
7 7 7 7 7 7 7 7 7 7 6 6 6 6 6 6 6 6 6 6 6 6 6 6 6 6 6 6 6 6 6 6 6 6 6 6 6 6 6 7 7 7 7
7 7 7 7 6 6 6 6 6 6 6 6 6 6 5 5 5 5 5 5 5 5 5 5 6 6 6 6 6 6 6 6 6 6 6 6 6 6 6 6 6 6 7
6 6 6 6 6 6 6 6 5 5 5 5 5 5 4 4 4 4 4 4 4 4 5 5 5 5 5 5 5 5 5 5 5 5 5 5 5 6 6 6 6 6 6
6 6 6 6 6 5 5 5 5 5 5 5 4 4 3 3 3 3 3 4 4 4 4 4 4 4 4 4 5 5 5 5 5 4 4 5 5 5 5 5 5 6 6
6 5 5 5 5 5 5 5 5 4 4 4 4 4 3 3 2 3 3 3 3 3 3 3 3 4 4 4 4 4 4 4 4 4 4 4 4 4 4 4 5 5 5
5 5 5 5 5 5 5 4 4 4 4 4 3 4 4 3 2 1 2 2 2 2 2 3 3 3 3 3 3 3 3 3 3 3 3 3 3 3 3 4 4 4 4
5 5 5 4 4 4 4 4 4 4 3 3 3 3 3 3 3 2 1 2 2 2 2 2 2 2 2 2 2 3 3 3 3 3 3 3 3 3 3 3 3 3 3
4 4 4 4 4 4 4 4 3 3 3 3 3 2 3 2 3 2 2 1 1 1 1 1 1 1 1 2 2 2 2 2 2 2 2 2 2 2 2 2 2 2 2
4 4 4 4 4 3 3 3 3 3 2 2 2 2 2 2 2 2 2 1 0 0 1 1 1 1 1 1 1 1 1 2 2 2 2 2 2 2 2 2 1 2 2
4 4 3 3 3 3 3 3 2 2 2 2 2 2 1 2 2 1 1 1 0 -0 -0 0 0 0 0 0 1 1 1 1 1 1 1 1 1 1 1 1 1 1 1
3 3 3 3 3 3 2 2 2 2 2 2 1 1 1 1 1 1 1 1 0 -1 -1 -1 -0 -0 -0 -0 0 -0 -0 0 0 0 1 1 1 1 1 1 1 0 1
3 2 2 2 2 2 2 2 1 1 1 1 1 1 1 1 1 0 0 -0 -0 -0 -1 -1 -1 -1 -1 -1 -1 -1 -1 -0 -0 -0 -0 -0 -0 -0 0 0 0 -0 -0
2 2 2 2 1 1 1 1 1 1 1 1 0 0 0 0 0 -0 -0 -1 -1 -1 -1 -1 -1 -1 -1 -1 -1 -1 -1 -1 -1 -1 -1 -1 -1 -1 -1 -1 -1 -1 -1
1 1 1 1 1 1 1 1 0 0 -0 -0 -0 -0 -0 -0 -0 -1 -1 -1 -1 -1 -2 -2 -2 -2 -2 -2 -2 -2 -2 -2 -1 -1 -1 -1 -1 -1 -1 -1 -1 -1 -1
1 1 1 1 0 0 -0 -0 -0 -1 -1 -1 -1 -1 -1 -1 -1 -1 -2 -2 -2 -2 -2 -2 -2 -2 -2 -2 -2 -2 -2 -2 -2 -2 -2 -2 -2 -2 -2 -2 -2 -2 -2
-0 0 -0 -0 -1 -1 -1 -1 -1 -1 -2 -2 -2 -2 -2 -2 -2 -2 -2 -2 -2 -2 -2 -3 -3 -3 -3 -3 -3 -3 -3 -3 -3 -3 -3 -3 -3 -2 -2 -3 -3 -2 -3
-1 -1 -1 -1 -1 -2 -2 -2 -2 -2 -2 -2 -3 -2 -2 -3 -3 -3 -3 -3 -3 -3 -3 -3 -4 -4 -4 -4 -4 -4 -4 -4 -3 -3 -3 -3 -3 -3 -3 -3 -3 -3 -3
-2 -2 -2 -2 -2 -2 -2 -3 -3 -3 -3 -3 -3 -3 -3 -3 -3 -3 -3 -3 -4 -4 -4 -4 -4 -4 -4 -4 -4 -4 -4 -5 -5 -4 -4 -4 -4 -4 -4 -4 -4 -4 -4
-2 -3 -3 -3 -3 -3 -3 -3 -4 -4 -4 -4 -4 -4 -4 -4 -4 -4 -4 -4 -4 -4 -4 -5 -5 -5 -5 -5 -5 -5 -5 -5 -5 -5 -5 -5 -5 -5 -5 -4 -4 -4 -5
-3 -3 -4 -4 -4 -4 -4 -4 -4 -5 -4 -4 -4 -5 -5 -5 -5 -5 -5 -5 -5 -5 -5 -6 -5 -5 -5 -6 -6 -6 -6 -6 -6 -6 -6 -6 -6 -6 -5 -5 -5 -5 -5
-4 -4 -5 -5 -5 -5 -5 -5 -5 -5 -5 -5 -5 -6 -6 -6 -6 -6 -6 -6 -6 -6 -6 -6 -6 -6 -6 -6 -6 -7 -7 -7 -7 -6 -7 -7 -7 -6 -6 -6 -6 -6 -6
-5 -5 -5 -6 -6 -6 -6 -6 -6 -6 -6 -6 -6 -6 -6 -6 -6 -6 -6 -6 -6 -7 -7 -7 -7 -7 -7 -7 -7 -7 -7 -7 -7 -8 -7 -8 -8 -8 -8 -7 -7 -7 -7
Wind_Speed
6 6 6 6 6 6 6 6 6 7 8 8 8 8 9 9 9 9 10 14 13 13 12 12 12 12 12 12 12 12 12 12 11 11 10 9 8 8 8 7 7 7 7
6 6 6 5 5 6 6 6 6 6 6 7 8 8 8 8 9 9 9 11 14 14 13 13 12 11 11 11 11 11 11 11 11 11 10 9 8 7 7 7 6 5 5
7 7 5 5 5 6 6 6 6 6 6 7 7 8 8 8 8 9 9 8 10 13 14 13 13 12 12 11 11 10 10 10 11 11 11 10 8 7 7 6 5 4 5
8 7 5 5 6 6 6 5 5 5 5 5 5 5 6 7 8 8 9 9 8 9 11 13 13 13 12 12 12 11 11 11 11 11 11 11 9 8 8 7 5 4 4
8 7 6 6 7 6 5 5 4 4 5 5 5 5 5 6 7 7 9 9 9 9 8 10 12 13 12 12 11 11 11 11 11 11 11 11 11 9 8 9 7 4 4
7 7 6 7 7 5 5 5 5 5 5 5 5 5 5 5 6 7 7 8 9 9 8 8 8 10 12 12 12 11 10 10 10 10 10 10 11 10 8 8 8 6 5
8 7 6 6 6 5 6 6 5 6 5 4 4 4 4 4 5 5 5 6 7 8 8 8 8 7 8 10 12 12 10 10 10 10 10 10 10 10 9 8 8 6 5
8 7 7 6 6 5 7 7 7 4 4 3 2 3 2 2 2 3 3 4 5 6 7 7 7 7 7 7 9 11 12 10 10 10 10 10 10 10 9 9 9 6 5
8 7 7 7 6 6 6 7 7 6 5 3 2 1 2 2 1 1 1 2 3 4 4 5 6 6 6 6 7 9 12 12 10 10 10 10 10 10 11 10 9 9 7
7 8 8 7 7 6 6 7 6 5 6 5 2 0 1 1 2 2 1 1 2 2 3 3 3 4 5 5 6 8 10 11 10 9 10 10 10 10 10 11 10 9 8
6 7 7 7 7 6 6 7 6 6 5 5 3 2 1 1 2 2 2 2 0 1 2 2 2 2 4 4 5 7 9 9 10 9 9 9 10 10 10 11 11 9 9
5 6 7 7 7 6 6 6 6 7 5 5 4 3 2 2 2 2 2 2 1 1 1 1 1 2 3 4 6 8 9 9 10 10 9 9 9 10 10 10 11 10 8
5 6 6 6 6 6 6 6 6 6 6 6 5 3 3 2 2 2 2 1 1 1 1 1 1 1 2 3 4 7 8 8 10 11 9 8 9 9 9 10 9 10 8
6 6 7 6 7 7 7 6 5 5 5 5 5 4 3 2 3 3 2 2 2 2 2 2 1 2 2 3 4 6 5 7 9 10 9 8 8 9 9 9 9 9 8
5 7 7 7 7 7 7 6 5 6 5 5 5 4 3 3 3 2 3 3 3 2 3 2 1 2 3 3 4 4 5 6 8 8 9 8 8 8 9 9 9 10 9
6 7 7 7 7 7 7 6 5 5 6 5 4 4 4 3 2 2 3 3 3 3 3 2 2 2 3 3 4 4 4 6 6 7 8 9 8 8 8 9 9 9 9
7 7 7 7 7 7 7 7 6 6 6 5 5 5 4 4 3 3 3 2 2 2 3 3 2 2 3 3 3 4 4 4 4 6 8 8 8 7 8 8 8 9 9
6 7 7 7 7 7 7 7 7 6 6 6 6 5 5 4 4 3 3 3 3 3 3 4 3 3 4 3 4 4 4 4 4 6 7 7 8 8 7 8 8 8 9
5 6 6 6 6 7 7 7 7 7 6 6 6 6 6 5 5 4 4 3 3 2 3 4 4 3 3 3 3 4 4 4 4 5 6 6 7 8 8 8 8 8 9
5 5 5 5 5 6 6 7 7 6 6 5 5 5 5 6 6 5 4 4 3 3 3 3 3 3 3 3 3 3 3 3 4 4 5 6 7 8 7 8 8 8 9
4 5 5 5 5 5 5 6 6 6 6 5 4 4 4 4 5 4 4 4 4 4 4 4 4 3 3 3 3 3 4 4 4 3 4 5 6 6 6 7 7 8 9
4 4 5 5 5 4 6 7 6 5 5 5 5 4 4 4 5 5 6 5 5 5 5 4 4 5 5 4 4 4 4 4 4 3 4 5 5 5 5 6 7 9 9
4 4 4 4 5 5 7 7 7 5 4 5 5 4 3 4 5 4 5 5 5 6 6 5 5 6 5 4 4 5 5 5 5 4 5 5 5 5 6 7 8 9 10
4 4 4 4 4 4 7 7 7 4 4 4 4 5 4 4 4 5 4 4 4 5 5 5 5 5 5 5 5 5 5 6 6 5 5 5 5 6 6 7 7 8 10
3 3 3 3 4 4 6 6 6 3 4 4 4 4 5 4 5 6 5 4 4 4 4 6 6 6 6 6 6 4 4 4 5 4 3 4 4 6 6 6 6 8 9
3 3 2 3 3 3 5 6 5 3 4 3 3 4 5 5 6 6 5 5 5 4 4 3 4 5 5 5 6 5 5 5 4 4 2 3 4 4 4 4 5 7 8
Wind_Direction
128 120 115 107 101 100 95 89 86 82 79 75 75 77 75 73 73 74 67 60 60 61 64 65 64 63 61 60 61 60 57 55 53 51 49 49 50 49 45 42 45 52 51
135 131 121 111 105 102 99 98 93 88 81 78 74 73 74 72 71 72 70 63 56 56 58 59 60 60 60 57 58 57 55 52 49 46 42 42 43 42 38 35 34 41 47
146 137 130 121 114 112 107 102 94 90 84 79 73 69 70 70 72 67 62 60 57 53 53 54 55 56 57 55 53 54 53 50 47 45 41 38 39 36 30 28 24 33 38
152 144 137 128 124 121 114 108 102 98 89 81 72 67 68 67 67 64 60 55 53 50 51 51 50 50 49 49 48 49 51 49 47 44 41 37 35 34 30 24 15 26 28
156 152 144 137 135 127 121 118 113 107 98 84 74 68 67 65 63 62 61 54 50 48 50 51 49 47 44 43 42 41 45 45 42 39 35 31 27 24 25 24 18 14 12
156 153 146 145 143 137 131 129 120 106 101 95 86 71 64 69 66 59 57 54 50 48 47 45 46 46 43 39 37 34 35 37 34 31 28 23 20 16 14 14 12 9 11
157 155 149 150 152 151 148 142 130 122 113 114 100 87 75 69 68 57 53 54 51 46 45 44 44 40 38 37 33 27 26 28 28 23 20 17 12 7 4 4 359 356 356
160 161 159 161 161 158 156 153 145 138 133 141 133 135 135 132 73 52 51 49 45 43 42 40 42 40 34 31 28 24 19 16 16 14 12 10 6 3 356 358 356 348 350
166 167 168 167 167 167 169 168 163 160 159 156 159 166 176 181 142 124 64 53 39 37 38 35 37 36 32 29 25 18 12 6 4 4 3 2 360 357 357 353 348 348 337
170 170 171 171 170 173 176 176 175 173 172 169 159 47 2 137 168 164 176 94 31 23 23 20 26 30 25 25 21 15 4 360 355 354 353 352 351 350 350 350 345 341 339
171 171 172 173 174 176 181 181 180 178 184 184 175 161 141 150 177 192 194 199 308 357 0 358 7 13 16 19 14 7 359 354 351 343 344 344 343 344 346 344 343 335 332
172 174 176 176 178 179 183 187 188 187 187 186 182 185 191 192 189 196 203 210 231 275 309 316 315 349 3 6 9 4 357 354 352 343 340 339 340 341 340 337 339 333 329
180 182 181 183 182 183 183 185 190 190 189 185 187 190 201 208 188 188 175 200 258 275 255 260 274 303 332 341 353 350 350 353 350 348 343 342 340 336 332 331 333 336 326
184 180 182 184 184 180 178 181 187 188 189 190 190 189 191 192 178 184 197 195 226 254 248 252 249 261 302 323 339 331 337 345 346 347 347 347 345 340 335 332 332 334 330
175 177 181 181 184 180 179 179 187 187 185 190 190 186 189 187 183 194 202 203 210 233 252 233 238 255 291 309 320 317 318 335 335 339 344 340 341 340 340 339 337 335 331
172 175 179 182 182 180 180 181 187 188 184 186 184 182 185 183 178 189 198 215 232 238 244 247 257 260 279 291 306 303 306 318 327 333 335 335 331 332 333 331 331 331 327
175 178 179 180 182 181 180 182 187 183 183 184 183 183 186 182 182 187 191 205 218 225 238 259 263 252 267 279 292 297 301 302 312 326 327 328 326 323 323 325 324 324 323
178 178 178 179 181 182 183 185 186 186 187 188 188 187 188 182 187 191 194 202 213 227 233 244 258 256 262 274 285 292 296 297 298 316 318 319 322 318 316 317 320 322 324
174 171 173 179 182 184 184 187 188 190 194 195 192 192 193 188 191 195 196 202 208 215 223 227 244 256 262 266 282 292 292 290 292 302 305 309 309 310 309 311 315 317 320
173 172 174 178 181 184 185 186 185 186 190 194 195 195 197 198 198 196 200 203 201 203 205 213 229 244 255 265 276 287 297 296 293 293 295 299 302 300 299 304 309 312 312
174 172 170 175 179 184 186 184 183 183 182 185 190 195 198 201 208 208 208 203 199 202 204 211 224 236 245 255 265 278 287 297 294 283 296 294 296 294 293 293 297 305 307
167 170 175 176 181 186 184 186 183 181 179 184 189 191 192 196 201 210 215 216 213 207 207 215 229 235 244 253 264 270 278 287 287 290 299 295 289 290 293 290 296 301 304
164 169 173 179 187 186 186 186 185 185 183 188 193 194 195 197 203 200 203 211 221 226 228 230 234 240 247 250 256 262 266 273 281 294 295 287 287 290 296 296 293 296 303
168 171 177 184 186 187 189 188 185 189 186 189 196 198 197 202 205 201 201 211 222 226 227 231 238 248 252 250 246 256 268 275 282 276 273 275 287 294 299 294 294 295 301
164 168 176 180 184 190 192 193 187 182 185 191 196 199 201 207 207 206 207 212 221 231 231 235 245 251 254 248 246 251 257 263 275 277 271 271 288 301 295 286 290 294 296
157 158 170 183 190 199 197 195 188 189 190 192 192 199 206 210 212 216 217 215 222 230 226 228 237 241 244 246 243 242 247 252 266 270 262 271 283 301 292 283 294 302 295
Height
1534 1536 1537 1538 1539 1540 1540 1541 1542 1542 1543 1544 1545 1545 1546 1547 1548 1549 1549 1550 1550 1551 1551 1551 1551 1552 1552 1552 1552 1552 1552 1552 1552 1552 1552 1552 1552 1552 1552 1552 1552 1552 1552
1533 1535 1536 1537 1538 1539 1540 1541 1541 1542 1543 1544 1544 1545 1546 1546 1547 1548 1549 1549 1549 1550 1550 1550 1551 1551 1551 1552 1552 1552 1552 1551 1551 1551 1551 1551 1551 1551 1551 1551 1551 1551 1551
1532 1533 1535 1536 1537 1538 1539 1540 1541 1542 1542 1543 1543 1544 1545 1545 1546 1547 1548 1548 1549 1549 1549 1549 1550 1550 1550 1551 1551 1551 1551 1551 1551 1550 1550 1550 1550 1550 1550 1550 1549 1549 1549
1530 1532 1533 1534 1535 1537 1538 1539 1540 1541 1541 1542 1543 1543 1544 1545 1545 1546 1547 1547 1548 1548 1548 1548 1548 1549 1549 1549 1550 1550 1550 1550 1549 1549 1549 1549 1549 1548 1548 1548 1548 1548 1548
1529 1530 1531 1533 1534 1535 1536 1538 1539 1540 1540 1541 1542 1542 1543 1544 1544 1545 1546 1546 1547 1547 1547 1547 1547 1547 1548 1548 1548 1548 1548 1548 1548 1548 1548 1547 1547 1547 1547 1547 1546 1546 1546
1526 1528 1529 1531 1532 1534 1535 1536 1537 1538 1539 1540 1540 1541 1542 1543 1543 1544 1544 1545 1546 1546 1546 1546 1546 1546 1546 1546 1546 1547 1547 1547 1547 1546 1546 1546 1546 1545 1545 1544 1544 1544 1544
1524 1525 1527 1529 1530 1531 1533 1534 1535 1536 1537 1538 1539 1540 1541 1542 1542 1543 1543 1544 1544 1544 1544 1544 1544 1544 1544 1545 1545 1545 1545 1545 1545 1545 1544 1544 1544 1543 1543 1542 1541 1541 1541
1521 1523 1525 1526 1527 1529 1530 1531 1533 1534 1535 1536 1538 1539 1541 1543 1542 1542 1542 1542 1543 1543 1543 1543 1543 1543 1542 1543 1542 1542 1542 1543 1542 1542 1542 1542 1541 1541 1540 1539 1539 1538 1538
1518 1520 1522 1524 1525 1526 1527 1529 1530 1531 1532 1534 1536 1537 1539 1539 1540 1541 1541 1541 1541 1541 1541 1541 1541 1541 1541 1541 1540 1540 1540 1540 1540 1540 1540 1539 1539 1538 1537 1536 1535 1535 1535
1515 1517 1519 1520 1522 1523 1525 1526 1527 1529 1530 1531 1533 1534 1536 1536 1537 1538 1539 1539 1539 1539 1539 1539 1539 1539 1539 1539 1538 1538 1538 1537 1537 1537 1537 1536 1536 1535 1534 1533 1532 1531 1531
1512 1514 1515 1517 1518 1520 1522 1523 1525 1526 1527 1529 1530 1531 1532 1533 1534 1535 1536 1537 1537 1537 1537 1537 1537 1537 1537 1536 1536 1536 1535 1535 1534 1534 1534 1533 1532 1531 1531 1530 1529 1528 1527
1508 1510 1511 1513 1515 1517 1519 1520 1522 1523 1524 1526 1527 1528 1530 1531 1531 1532 1533 1533 1534 1534 1534 1534 1535 1535 1534 1534 1534 1533 1532 1532 1531 1531 1530 1530 1528 1527 1527 1526 1525 1525 1524
1504 1506 1508 1510 1511 1513 1515 1517 1519 1520 1521 1523 1524 1526 1527 1528 1529 1530 1530 1531 1531 1531 1531 1532 1532 1532 1532 1531 1531 1530 1530 1529 1528 1527 1527 1526 1525 1524 1523 1523 1522 1521 1520
1500 1503 1505 1506 1508 1510 1511 1513 1515 1516 1518 1519 1521 1522 1524 1525 1526 1527 1528 1529 1529 1529 1529 1529 1529 1529 1529 1529 1528 1527 1527 1526 1525 1524 1523 1522 1521 1521 1520 1519 1518 1517 1517
1497 1499 1501 1503 1504 1506 1508 1509 1511 1513 1514 1515 1517 1519 1520 1521 1522 1524 1525 1526 1527 1527 1526 1526 1526 1526 1526 1526 1525 1525 1524 1523 1522 1521 1520 1519 1519 1518 1517 1516 1515 1514 1513
1493 1495 1497 1499 1500 1502 1504 1506 1507 1509 1510 1511 1513 1515 1516 1517 1519 1520 1521 1522 1523 1524 1523 1523 1523 1523 1523 1523 1523 1522 1521 1520 1519 1518 1517 1516 1516 1515 1514 1513 1512 1511 1510
1489 1491 1493 1495 1496 1498 1500 1501 1503 1504 1506 1507 1509 1511 1512 1514 1515 1516 1517 1518 1519 1520 1520 1519 1520 1520 1520 1520 1519 1519 1518 1517 1516 1515 1514 1513 1512 1511 1510 1509 1509 1508 1507
1485 1487 1489 1491 1492 1494 1496 1497 1499 1500 1502 1504 1505 1507 1508 1510 1511 1512 1514 1515 1516 1517 1517 1516 1516 1517 1517 1517 1516 1516 1515 1514 1513 1512 1511 1510 1509 1508 1507 1506 1505 1504 1503
1481 1483 1485 1486 1488 1490 1492 1493 1495 1497 1498 1500 1502 1503 1505 1506 1507 1509 1510 1511 1512 1513 1513 1513 1512 1513 1513 1513 1513 1512 1512 1511 1510 1509 1508 1507 1505 1504 1503 1502 1501 1500 1499
1477 1479 1480 1482 1484 1486 1488 1489 1491 1492 1494 1496 1498 1499 1501 1502 1503 1505 1506 1507 1508 1509 1509 1509 1509 1509 1510 1510 1509 1509 1508 1507 1506 1505 1504 1503 1502 1500 1499 1498 1497 1496 1494
1474 1475 1477 1479 1480 1482 1484 1485 1487 1489 1490 1492 1494 1495 1497 1498 1499 1500 1502 1503 1504 1504 1505 1505 1505 1506 1506 1506 1506 1505 1504 1503 1503 1502 1500 1499 1498 1496 1495 1494 1493 1491 1490
1471 1472 1474 1475 1477 1478 1480 1482 1483 1485 1486 1488 1490 1491 1493 1494 1495 1496 1498 1499 1500 1501 1501 1501 1502 1502 1502 1502 1502 1501 1500 1500 1499 1499 1497 1496 1495 1493 1491 1490 1489 1487 1486
1467 1469 1470 1472 1473 1475 1477 1478 1480 1481 1483 1485 1486 1487 1489 1490 1492 1493 1493 1494 1495 1496 1497 1498 1498 1498 1498 1498 1498 1498 1497 1496 1495 1494 1493 1491 1491 1489 1487 1485 1484 1483 1481
1464 1465 1467 1469 1470 1472 1474 1475 1477 1478 1480 1481 1483 1484 1485 1487 1488 1489 1490 1491 1491 1492 1493 1493 1494 1494 1494 1495 1494 1494 1493 1492 1491 1490 1489 1487 1486 1484 1483 1481 1480 1478 1477
1461 1462 1464 1465 1467 1469 1470 1472 1474 1475 1476 1478 1479 1481 1482 1483 1484 1485 1486 1487 1487 1487 1488 1489 1489 1490 1490 1490 1490 1490 1489 1488 1487 1486 1485 1484 1481 1480 1478 1477 1475 1474 1472
1458 1459 1461 1463 1464 1465 1467 1469 1471 1472 1473 1475 1476 1477 1479 1480 1481 1482 1482 1483 1483 1483 1484 1485 1485 1485 1485 1485 1485 1485 1485 1484 1483 1482 1481 1480 1478 1476 1474 1472 1471 1470 1468